[[{"header":{"parameterUnit":"m.s-1","parameterCategory":1,"la1":30.2991,"la2":30.254,"lo1":-89.0895,"lo2":-89.0444,"dy":0.0017,"dx":0.0017,"nx":28,"ny":28,"refTime":"2023-11-05T09:00:00:Z","depth":0,"parameterNumber":2,"parameterNumberName":"U-component_of_WINDS"},"data":[0,0,0,0,0,0,0,0,0,0,0,0,0,0,0,0,0,0,0,0,0,0,0,0,0,0,0,0,0,0,0,0,0,0,0,0,0,0,0,0,0,0,0,0,0,0,0,0,0,0,0,0,0,0,0,0,0,0,1.2654,1.2656,0,1.2777,1.2779,1.278,1.28,1.2799,1.2798,1.2797,1.2924,1.2929,1.2933,0,0,0,0,0,0,0,0,0,0,0,0,0,1.2437,1.244,1.2654,1.2656,1.2657,1.2777,1.2779,1.278,1.28,1.2799,1.2797,1.2796,1.2923,1.2928,1.2933,0,0,0,0,0,0,0,0,0,0,0,0,0,1.2542,1.2442,1.2654,1.2682,1.2685,1.2777,1.2779,1.2781,1.28,1.2799,1.2797,1.2796,1.2921,1.2928,1.2934,1.3007,0,0,1.2954,1.2957,0,0,0,0,0,0,0,0,1.2536,1.255,1.2676,1.268,1.2684,1.2772,1.2749,1.2857,1.2801,1.2757,1.2797,1.2795,1.2875,1.2885,1.2912,1.3013,1.3019,1.2955,1.2959,1.2962,1.2964,0,0,0,0,0,0,0,1.2529,1.2545,1.2703,1.2678,1.2683,1.2688,1.2701,1.2769,1.2823,1.276,1.2762,1.2776,1.2877,1.2905,1.2915,1.3021,1.2955,1.2961,1.2965,1.2967,1.3185,1.3187,0,0,0,0,0,0,1.2517,1.2539,1.2699,1.2707,1.2605,1.2693,1.2708,1.2745,1.2823,1.2833,1.2778,1.2777,1.2895,1.2907,1.292,1.3008,1.2962,1.2968,1.2972,1.3184,1.3186,1.3188,0,0,0,0,0,0,1.2512,1.2531,1.2694,1.2623,1.2645,1.2698,1.274,1.2748,1.2777,1.2836,1.2846,1.2797,1.2894,1.291,1.2985,1.3013,1.2971,1.2977,1.3181,1.3184,1.3187,1.3187,0,0,0,0,0,0,1.2506,1.2529,1.2557,1.2624,1.2648,1.2757,1.2742,1.2752,1.2788,1.2788,1.2856,1.2866,1.2894,1.2975,1.2991,1.3021,1.2982,1.3179,1.3183,1.3186,1.3185,1.319,1.3194,0,0,0,0,0,1.2498,1.2553,1.2559,1.2578,1.2685,1.2759,1.2773,1.2803,1.279,1.2819,1.2856,1.2864,1.3007,1.2982,1.3001,1.3033,1.3177,1.3182,1.3186,1.3183,1.3189,1.3194,0,0,0,0,0,0,1.249,1.2563,1.2569,1.2648,1.2697,1.2762,1.2799,1.2809,1.2863,1.286,1.2897,1.2912,1.2984,1.3017,1.2987,1.3107,1.3091,1.31,1.3083,1.3089,1.3093,1.3083,1.2987,0,0,0,0,0,1.2497,1.2551,1.2612,1.2675,1.2699,1.2745,1.2778,1.2797,1.285,1.287,1.2913,1.2964,1.302,1.3057,1.3112,1.319,1.3204,1.3222,1.3226,1.3229,1.3235,1.3277,1.3285,1.3201,1.3201,1.3201,0,0,1.2513,1.2559,1.2591,1.2675,1.2715,1.2769,1.2762,1.2821,1.2861,1.288,1.2951,1.2985,1.3044,1.3119,1.3155,1.3149,1.3262,1.3235,1.3237,1.3241,1.3282,1.329,1.3297,1.3204,1.3204,1.3203,0,0,1.2569,1.261,1.2667,1.2706,1.2767,1.2796,1.281,1.2873,1.2895,1.2968,1.2982,1.3031,1.3128,1.3169,1.3202,1.3271,1.328,1.3289,1.3311,1.3351,1.3358,1.3363,1.3386,1.3394,1.3295,1.3295,1.3295,0,1.2581,1.2663,1.2695,1.2751,1.2787,1.2806,1.2862,1.29,1.2975,1.2999,1.2991,1.3111,1.3153,1.3237,1.3253,1.3281,1.3296,1.328,1.3354,1.336,1.3366,1.3388,1.3397,1.3295,1.3295,1.3295,1.3295,0,1.2674,1.273,1.2769,1.2839,1.288,1.2936,1.2976,1.3013,1.3028,1.3059,1.3131,1.3181,1.3246,1.3268,1.3284,1.3354,1.3348,1.3347,1.3331,1.3374,1.3395,1.3404,1.3296,1.3296,1.3296,1.3296,0,0,1.2728,1.2814,1.2828,1.2859,1.2926,1.297,1.3028,1.309,1.312,1.3171,1.3219,1.33,1.3298,1.3336,1.3357,1.3392,1.3441,1.3387,1.3389,1.3393,1.3519,1.3518,1.3527,1.3448,1.345,1.3451,1.3513,0,1.279,1.2892,1.2921,1.3006,1.3058,1.3076,1.3125,1.3171,1.3201,1.3249,1.3282,1.3338,1.3333,1.3355,1.3391,1.3428,1.3467,1.3424,1.3491,1.3493,1.3474,1.3539,1.3538,1.3595,1.3522,1.3523,1.3524,0,1.2876,1.2927,1.3017,1.3076,1.3099,1.3143,1.3201,1.3247,1.3299,1.3318,1.3359,1.3377,1.3437,1.3419,1.3501,1.3471,1.35,1.3522,1.3525,1.3531,1.351,1.3545,1.3614,1.3621,1.3538,1.3537,1.3536,0,1.2904,1.2996,1.3061,1.3087,1.3158,1.3188,1.3219,1.327,1.3304,1.3356,1.3378,1.3436,1.3468,1.3512,1.3544,1.3529,1.3623,1.3608,1.3639,1.3638,1.3657,1.3655,1.3729,1.3679,1.3679,1.3679,1.3678,0,1.2969,1.3023,1.3073,1.3113,1.3174,1.3207,1.3266,1.3298,1.3342,1.3388,1.3408,1.3451,1.3492,1.354,1.3567,1.3629,1.3644,1.366,1.3666,1.3657,1.3655,1.3676,1.3672,1.3681,1.368,1.368,1.368,0,1.3009,1.3046,1.3117,1.3178,1.3194,1.3236,1.3288,1.3327,1.3357,1.3414,1.343,1.3477,1.3535,1.3572,1.3646,1.3663,1.3731,1.3737,1.3712,1.3715,1.3743,1.3739,1.3832,1.3845,1.3787,1.3788,1.3788,0,1.3048,1.3089,1.3153,1.3185,1.3216,1.3267,1.3302,1.3336,1.3372,1.3434,1.3465,1.3524,1.3572,1.3663,1.3704,1.376,1.3766,1.3795,1.3775,1.3764,1.3764,1.3761,1.3764,1.3798,1.3798,1.3799,1.3799,0,1.3111,1.3126,1.3176,1.3231,1.3272,1.3318,1.3364,1.3389,1.3431,1.347,1.3528,1.3565,1.364,1.3697,1.3756,1.3788,1.38,1.3805,1.3815,1.3805,1.3789,1.3796,1.3719,1.3803,1.3802,1.3802,1.3802,1.3802,1.315,1.3187,1.3237,1.3291,1.3329,1.3371,1.3409,1.3444,1.3493,1.3555,1.3573,1.3633,1.3683,1.3764,1.3797,1.3844,1.3841,1.3856,1.3859,1.3862,1.3861,1.3782,1.3856,1.3856,1.3856,1.3856,1.3856,0,1.3212,1.3245,1.3295,1.3357,1.3399,1.3406,1.3457,1.3492,1.3544,1.359,1.3637,1.3703,1.3758,1.3803,1.386,1.3889,1.3896,1.3903,1.39,1.3907,1.3862,1.3846,1.3896,1.3896,1.3896,1.3896,1.3896,1.3896,1.3249,1.3311,1.3332,1.3413,1.3446,1.3504,1.3532,1.357,1.3607,1.3679,1.3725,1.3753,1.3799,1.3859,1.3909,1.3921,1.394,1.3946,1.3958,1.3915,1.391,1.3906,1.3892,1.395,1.395,1.3999,1.4,1.4]},{"header":{"parameterUnit":"m.s-1","parameterCategory":1,"la1":30.2991,"la2":30.254,"lo1":-89.0895,"lo2":-89.0444,"dy":0.0017,"dx":0.0017,"nx":28,"ny":28,"refTime":"2023-11-05T09:00:00:Z","depth":0,"parameterNumber":3,"parameterNumberName":"V-component_of_WINDS"},"data":[0,0,0,0,0,0,0,0,0,0,0,0,0,0,0,0,0,0,0,0,0,0,0,0,0,0,0,0,0,0,0,0,0,0,0,0,0,0,0,0,0,0,0,0,0,0,0,0,0,0,0,0,0,0,0,0,0,0,2.1813,2.1813,0,2.1755,2.1754,2.1754,2.1697,2.1696,2.1695,2.1694,2.1635,2.1634,2.1633,0,0,0,0,0,0,0,0,0,0,0,0,0,2.1873,2.1872,2.1813,2.1813,2.1812,2.1755,2.1754,2.1754,2.1697,2.1696,2.1695,2.1694,2.1635,2.1634,2.1633,0,0,0,0,0,0,0,0,0,0,0,0,0,2.1834,2.1872,2.1813,2.1777,2.1773,2.1755,2.1754,2.1753,2.1697,2.1696,2.1695,2.1694,2.1635,2.1634,2.1633,2.1647,0,0,2.1629,2.1628,0,0,0,0,0,0,0,0,2.1837,2.1832,2.1783,2.1779,2.1775,2.1732,2.1754,2.1718,2.1697,2.1726,2.1694,2.1693,2.1668,2.1664,2.1655,2.1644,2.1642,2.1628,2.1628,2.1627,2.1627,0,0,0,0,0,0,0,2.1839,2.1834,2.179,2.1782,2.1777,2.1762,2.1756,2.1746,2.1704,2.1723,2.1719,2.1713,2.1665,2.1657,2.1654,2.1641,2.1628,2.1627,2.1626,2.1626,2.1635,2.1636,0,0,0,0,0,0,2.1848,2.1837,2.1792,2.1788,2.1803,2.1762,2.1755,2.1747,2.1704,2.1696,2.1714,2.171,2.166,2.1655,2.1651,2.1662,2.1627,2.1626,2.1625,2.1634,2.1635,2.1636,0,0,0,0,0,0,2.1849,2.1844,2.1794,2.1811,2.1804,2.1762,2.1754,2.1746,2.1737,2.1697,2.1689,2.1713,2.1659,2.1653,2.1648,2.166,2.1625,2.1624,2.1633,2.1634,2.1636,2.1687,0,0,0,0,0,0,2.1851,2.1845,2.1851,2.1812,2.1803,2.1793,2.1755,2.1746,2.1735,2.173,2.1694,2.1686,2.1657,2.165,2.1646,2.1657,2.1623,2.1631,2.1633,2.1635,2.1684,2.169,2.1695,0,0,0,0,0,2.1854,2.1868,2.1851,2.1846,2.1809,2.1793,2.1788,2.1754,2.1737,2.1741,2.1715,2.1688,2.1659,2.165,2.1645,2.1656,2.163,2.1633,2.1635,2.1681,2.1689,2.1695,0,0,0,0,0,0,2.191,2.1862,2.1843,2.1846,2.1824,2.1784,2.1789,2.1764,2.1747,2.1743,2.1701,2.1693,2.1692,2.1674,2.1664,2.1666,2.1641,2.1642,2.1678,2.1685,2.169,2.1694,2.1622,0,0,0,0,0,2.1922,2.1914,2.1873,2.1879,2.1869,2.1831,2.1823,2.1798,2.1774,2.1765,2.1738,2.1715,2.17,2.1692,2.1677,2.1682,2.1671,2.1687,2.1692,2.1697,2.1698,2.1697,2.1702,2.1644,2.1644,2.1644,0,0,2.1948,2.1921,2.1918,2.1889,2.187,2.186,2.1823,2.1816,2.1808,2.1763,2.1756,2.1735,2.1707,2.1706,2.1704,2.1691,2.1712,2.17,2.1704,2.1703,2.17,2.1705,2.171,2.1645,2.1645,2.1645,0,0,2.199,2.197,2.1972,2.1952,2.1923,2.1897,2.1898,2.1861,2.1845,2.1837,2.1802,2.1792,2.1769,2.175,2.1737,2.177,2.1743,2.1766,2.1795,2.1794,2.1798,2.1802,2.1811,2.1815,2.1768,2.1768,2.1768,0,2.2026,2.2011,2.1976,2.197,2.1957,2.1915,2.1916,2.1899,2.1866,2.1858,2.1843,2.1811,2.1789,2.1782,2.179,2.1782,2.1779,2.1769,2.1801,2.1804,2.1807,2.1815,2.1819,2.1771,2.177,2.177,2.177,0,2.2056,2.2046,2.2051,2.2019,2.2007,2.2005,2.1967,2.1959,2.1936,2.1912,2.1903,2.1875,2.1852,2.1849,2.1826,2.1837,2.1829,2.1809,2.1782,2.1816,2.1823,2.1826,2.1775,2.1774,2.1773,2.1772,0,0,2.2131,2.2079,2.2081,2.2065,2.2029,2.202,2.2015,2.1992,2.1985,2.1964,2.1957,2.1937,2.1917,2.1902,2.1877,2.1876,2.1901,2.1855,2.1853,2.1862,2.1908,2.1922,2.1927,2.1884,2.1884,2.1885,2.1909,0,2.2165,2.2153,2.212,2.2118,2.2107,2.2067,2.2062,2.2039,2.2016,2.2002,2.1977,2.1962,2.1938,2.1928,2.1926,2.1898,2.1909,2.1896,2.1875,2.1875,2.1881,2.1931,2.1947,2.1971,2.1912,2.1913,2.1913,0,2.2203,2.2183,2.218,2.2142,2.2136,2.2132,2.2108,2.2096,2.2068,2.2051,2.2034,2.2006,2.1996,2.1973,2.1958,2.1951,2.194,2.1925,2.1925,2.192,2.1895,2.1925,2.1979,2.1982,2.1917,2.1917,2.1917,0,2.2255,2.2227,2.2221,2.2209,2.2166,2.2164,2.2145,2.2116,2.2104,2.2083,2.2074,2.2052,2.2039,2.2022,2.1988,2.1975,2.1976,2.1951,2.196,2.196,2.196,2.1961,2.2011,2.1958,2.1958,2.1957,2.1957,0,2.2295,2.2294,2.2244,2.224,2.2236,2.2198,2.2196,2.2174,2.2148,2.2138,2.2103,2.2094,2.205,2.2036,2.2009,2.1999,2.1995,2.1979,2.1972,2.1981,2.1983,2.1972,2.1969,2.1958,2.1958,2.1958,2.1958,0,2.2352,2.2318,2.2308,2.2268,2.2258,2.2257,2.2221,2.2215,2.219,2.2177,2.2172,2.2132,2.2113,2.2078,2.2049,2.2031,2.2026,2.2014,2.2035,2.203,2.204,2.2039,2.2084,2.2087,2.2034,2.2035,2.2035,0,2.2378,2.2376,2.2335,2.2326,2.2309,2.2295,2.2282,2.2244,2.2232,2.2199,2.2196,2.2174,2.2155,2.2126,2.2093,2.2071,2.2057,2.2074,2.2053,2.2062,2.2054,2.2054,2.2052,2.2078,2.2079,2.208,2.208,0,2.2428,2.2412,2.2395,2.2371,2.2357,2.2337,2.2315,2.2309,2.2266,2.2254,2.2234,2.2219,2.2189,2.2167,2.2139,2.2119,2.2091,2.2087,2.2088,2.2096,2.2108,2.2099,2.2046,2.2086,2.2086,2.2085,2.2085,2.2085,2.2469,2.2464,2.2434,2.2416,2.2395,2.2375,2.2367,2.234,2.2323,2.2296,2.2274,2.2255,2.2225,2.2185,2.2166,2.215,2.2137,2.2139,2.2139,2.2139,2.2142,2.2112,2.2145,2.2145,2.2145,2.2144,2.2144,0,2.2515,2.2494,2.2477,2.2447,2.2432,2.2409,2.2383,2.2372,2.2356,2.233,2.2311,2.2287,2.2265,2.2231,2.2206,2.2199,2.2186,2.2193,2.2193,2.2188,2.2156,2.2157,2.2204,2.2204,2.2204,2.2204,2.2204,2.2204,2.2537,2.2527,2.2507,2.2486,2.2464,2.2446,2.2433,2.2413,2.2392,2.2367,2.2349,2.2327,2.2297,2.2269,2.2247,2.2237,2.2228,2.224,2.2226,2.2196,2.219,2.2185,2.2186,2.2239,2.2239,2.2259,2.2259,2.2259]}]]